Location: Degersen
(52.2871°N, 9.5716°E)
Time: 14:44:13
(UTC+00:00)

Cosmos 1821 Rocket - Visible Passes

Search period start: 11 April 2026 00:00
Search period end: 21 April 2026 00:00
Orbit: 945 x 1002 km, 82.9° (Epoch: 11 April)

Date Brightness Start Highest point End Pass type
(mag) Time Alt. Az. Time Alt. Az. Time Alt. Az.
11 Apr 4.0 20:22:24 20° S 20:26:48 66° E 20:33:04 10° NNE visible
11 Apr 5.7 22:07:26 10° WSW 22:12:43 28° WNW 22:18:06 10° N visible
12 Apr 5.2 19:02:24 10° SE 19:07:00 22° E 19:11:40 10° NNE visible
12 Apr 4.1 20:46:15 14° SSW 20:51:38 79° W 20:58:00 10° N visible
12 Apr 6.3 22:33:53 10° W 22:38:08 19° NW 22:42:27 10° NNW visible
13 Apr 4.6 19:25:55 10° SSE 19:31:28 35° E 19:37:07 10° NNE visible
13 Apr 4.8 21:10:37 10° SSW 21:16:39 50° WNW 21:22:49 10° N visible
13 Apr 6.6 23:01:21 10° WNW 23:03:45 12° NW 23:06:10 10° NNW visible
14 Apr 4.1 19:50:01 10° S 19:56:06 57° E 20:02:18 10° NNE visible
14 Apr 5.6 21:36:17 10° SW 21:41:50 32° WNW 21:47:29 10° N visible
15 Apr 4.0 20:14:37 10° S 20:20:53 90° SE 20:27:17 10° N visible
15 Apr 6.2 22:02:31 10° WSW 22:07:12 21° WNW 22:11:56 10° N visible
16 Apr 4.8 18:55:30 10° SE 19:00:50 31° E 19:06:15 10° NNE visible
16 Apr 4.6 20:39:41 10° SSW 20:45:50 58° WNW 20:52:08 10° N visible
16 Apr 6.6 22:29:34 10° W 22:32:45 14° NW 22:35:58 10° NNW visible
17 Apr 4.3 19:19:26 10° SSE 19:25:25 49° E 19:31:30 10° NNE visible
17 Apr 5.4 21:05:13 10° SW 21:10:58 37° WNW 21:16:50 10° N visible
18 Apr 4.0 19:43:54 10° S 19:50:09 79° E 19:56:32 10° NNE visible
18 Apr 6.1 21:31:15 10° WSW 21:36:17 24° WNW 21:41:22 10° N visible
19 Apr 4.4 20:08:49 10° SSW 20:15:03 67° WNW 20:21:26 10° N visible
19 Apr 6.6 21:58:00 10° W 22:01:47 16° NW 22:05:35 10° NNW visible
20 Apr 5.2 20:34:11 10° SW 20:40:07 43° WNW 20:46:11 10° N visible
20 Apr 7.0 22:26:25 10° NW 22:27:28 10° NW 22:28:30 10° NW visible
